STARLINK-33719

Satellite information

Favourite Embed

Satellite Type and Status

PAYLOADIN ORBIT

Key statistics

Satellite STARLINK-33719 at a glance.

Uptime

243

Days in orbit

Revolutions

≈ 15.3

Per day

Orbit

LEO

Low Earth Orbit

Inclination

43.0

Latest

Satellite identification and parameters

Extended collection of information and parameters for STARLINK-33719.

Object identification

Identified? True

Debris? False

Object name: STARLINK-33719

International designator: 2025-076K

Object number (NORAD): 63578

Object ID (CCSDS): 63578

Country: UNITED STATES OF AMERICA (US)

Current information (Y/N): Y

RCS size: LARGE

Orbital parameters

Period: 94.266 minutes

Inclination: 42.9988 deg

SMA: 6861.15 km

Apoapsis: 484.204 km

Periapsis: 481.826 km

RAAN: 98.5731 deg

Eccentricy: 0.00017332

Argument of periapsis: 278.0103 deg

Mean anomaly: 82.0552 deg

Mean motion: 15.27592089 rev/day

Mean motion (dot): 0.00022407 rev/day2

B* drag term: 0.00082098065 1/REarth

Two-line elements (TLE)

Creation date: Dec. 12, 2025, 3:16 a.m.

Reference frame: TEME

Reference center: EARTH

Epoch: Dec. 11, 2025, 4:41 p.m. UTC

TLE line 0: 0 STARLINK-33719

TLE line 1: 1 63578U 25076K 25345.69524509 .00022407 00000-0 82098-3 0 9993

TLE line 2: 2 63578 42.9988 98.5731 0001733 278.0103 82.0552 15.27592089 38370

Live tracking on map

Real-time ground track for satellite STARLINK-33719.

In-orbit conjunctions

There are no conjunctions computed for STARLINK-33719, at the moment. Check back to stay up to date, as we update our databases every day.

Go to all conjunctions

Associated space launch

A batch of 27 satellites for the Starlink mega-constellation - SpaceX's project for space-based Internet communication system.

STARLINK-33719 was lifted into orbit during the mission ‘Falcon 9 Block 5 | Starlink Group 6-73’, on board a Falcon 9 space rocket.

The launch took place on April 14, 2025, 4 a.m. from Space Launch Complex 40.

For more information about the launch, click the button.

Launch to space Falcon 9 Block 5 | Starlink Group 6-73
Falcon 9 Block 5 | Starlink Group 6-73

Agency: SpaceX

Status: Launch Successful

Launch date: April 14, 2025, 4 a.m. UTC

Rocket: Falcon 9

Launch pad: Space Launch Complex 40

Location: Cape Canaveral SFS, FL, USA

...

Latest news about this satellite

News about space launch
Live coverage: SpaceX to launch 27 Starlink satellites on Falcon 9 rocket from Cape Canaveral

The Starlink 6-73 mission features a Falcon booster, tail number 1067, which will launch for a record-setting 27th time. Liftoff from pad 40 at Cape Canaveral Space Force Station is targeting 10:34 p.m. EDT (0234 UTC).


Newsletter sign-up

Weekly statistics, charts and insights to help you stay on top of the space industry.